Total_Precipitation_Accumulation
0.00 0.00 0.00 0.02 0.19 0.64 1.28 0.31 0.43 0.20 0.07 0.00 0.01 0.00 0.00 0.02 0.01 0.02 0.01 0.02 0.00 0.00 0.00 0.13 0.13 0.01 0.10 0.13 0.06 0.11 0.06 0.03 0.04 0.09 0.06 0.06 0.09 0.11 0.13 0.18 0.20 0.17 0.13 0.12 0.11 0.11 0.06 0.08 0.10
0.00 0.00 0.00 0.14 0.30 1.06 1.48 0.31 0.27 0.21 0.09 0.02 0.04 0.00 0.02 0.04 0.03 0.00 0.00 0.00 0.02 0.03 0.01 0.00 0.03 0.11 0.17 0.11 0.08 0.07 0.10 0.12 0.09 0.12 0.07 0.09 0.15 0.13 0.13 0.12 0.16 0.23 0.23 0.12 0.07 0.02 0.04 0.05 0.04
0.00 0.00 0.07 0.16 0.39 1.22 0.51 0.25 0.37 0.17 0.08 0.01 0.12 0.02 0.02 0.03 0.01 0.00 0.00 0.00 0.02 0.05 0.00 0.01 0.10 0.15 0.11 0.13 0.17 0.10 0.09 0.06 0.13 0.14 0.10 0.18 0.17 0.21 0.12 0.22 0.25 0.28 0.27 0.22 0.33 0.22 0.09 0.04 0.04
0.00 0.06 0.23 0.96 1.44 1.59 0.33 0.11 0.20 0.29 0.04 0.02 0.03 0.05 0.00 0.00 0.00 0.00 0.00 0.03 0.03 0.01 0.00 0.03 0.12 0.16 0.15 0.08 0.06 0.04 0.10 0.12 0.10 0.11 0.12 0.13 0.20 0.10 0.22 0.21 0.21 0.22 0.15 0.12 0.17 0.21 0.12 0.02 0.05
0.01 0.20 1.05 1.44 0.79 0.18 0.16 0.16 0.27 0.18 0.06 0.05 0.04 0.10 0.01 0.00 0.00 0.00 0.01 0.02 0.01 0.00 0.01 0.03 0.15 0.09 0.09 0.05 0.05 0.10 0.10 0.10 0.08 0.19 0.19 0.26 0.27 0.23 0.30 0.21 0.22 0.18 0.09 0.05 0.08 0.07 0.10 0.10 0.13
0.10 0.46 0.67 1.17 0.18 0.03 0.07 0.12 0.14 0.07 0.04 0.02 0.01 0.00 0.01 0.00 0.02 0.01 0.01 0.04 0.01 0.01 0.01 0.01 0.10 0.07 0.06 0.06 0.09 0.13 0.10 0.11 0.08 0.13 0.23 0.25 0.53 0.23 0.23 0.20 0.11 0.03 0.01 0.03 0.05 0.09 0.05 0.11 0.08
0.41 0.78 0.79 0.38 0.03 0.04 0.03 0.09 0.13 0.08 0.04 0.01 0.00 0.00 0.01 0.01 0.01 0.01 0.02 0.01 0.01 0.00 0.01 0.02 0.04 0.07 0.07 0.09 0.13 0.11 0.06 0.09 0.05 0.12 0.14 0.16 0.22 0.25 0.26 0.24 0.12 0.01 0.02 0.04 0.05 0.06 0.09 0.18 0.12
0.36 1.05 0.75 0.32 0.04 0.03 0.03 0.15 0.12 0.04 0.03 0.02 0.02 0.00 0.01 0.00 0.00 0.01 0.01 0.01 0.01 0.00 0.03 0.02 0.02 0.08 0.06 0.05 0.10 0.04 0.04 0.10 0.05 0.06 0.19 0.18 0.07 0.17 0.21 0.23 0.15 0.01 0.00 0.02 0.04 0.11 0.17 0.17 0.12
0.30 1.84 0.58 0.46 0.01 0.01 0.01 0.13 0.19 0.18 0.07 0.08 0.04 0.00 0.00 0.00 0.00 0.02 0.00 0.02 0.00 0.02 0.01 0.01 0.00 0.02 0.06 0.05 0.05 0.02 0.06 0.24 0.23 0.20 0.27 0.47 0.09 0.35 0.35 0.11 0.02 0.00 0.00 0.07 0.10 0.08 0.14 0.13 0.08
0.95 0.84 0.35 0.22 0.06 0.01 0.01 0.08 0.16 0.38 0.16 0.09 0.02 0.00 0.00 0.00 0.00 0.00 0.00 0.00 0.01 0.02 0.04 0.01 0.01 0.00 0.02 0.06 0.07 0.07 0.06 0.09 0.20 0.25 0.23 0.14 0.10 0.22 0.01 0.00 0.01 0.01 0.05 0.08 0.09 0.07 0.08 0.29 0.20
0.94 1.30 0.51 0.16 0.06 0.01 0.01 0.10 0.19 0.37 0.26 0.05 0.00 0.00 0.00 0.00 0.00 0.00 0.00 0.00 0.00 0.00 0.00 0.00 0.00 0.01 0.08 0.10 0.01 0.00 0.00 0.03 0.12 0.16 0.10 0.03 0.04 0.03 0.06 0.11 0.13 0.12 0.10 0.23 0.16 0.14 0.05 0.12 0.06
0.18 0.33 0.28 0.16 0.07 0.02 0.03 0.09 0.15 0.58 0.16 0.01 0.00 0.00 0.00 0.00 0.00 0.00 0.00 0.00 0.00 0.00 0.00 0.01 0.00 0.03 0.01 0.01 0.01 0.00 0.00 0.00 0.16 0.14 0.02 0.01 0.02 0.12 0.15 0.14 0.28 0.29 0.10 0.50 0.09 0.09 0.06 0.03 0.00
0.21 0.26 0.25 0.19 0.09 0.07 0.15 0.12 0.04 0.14 0.10 0.01 0.00 0.00 0.00 0.00 0.00 0.00 0.00 0.00 0.00 0.00 0.01 0.01 0.00 0.02 0.01 0.00 0.00 0.00 0.00 0.00 0.00 0.01 0.04 0.07 0.04 0.05 0.12 0.13 0.21 0.20 0.10 0.09 0.07 0.06 0.02 0.00 0.00
0.27 0.26 0.45 0.34 0.26 0.26 0.31 0.28 0.10 0.11 0.21 0.03 0.00 0.00 0.00 0.00 0.00 0.00 0.00 0.00 0.00 0.00 0.00 0.00 0.00 0.00 0.00 0.00 0.00 0.00 0.00 0.00 0.00 0.01 0.03 0.11 0.03 0.04 0.08 0.15 0.08 0.07 0.08 0.06 0.09 0.10 0.07 0.00 0.00
0.24 0.17 0.24 0.44 0.52 0.69 0.41 0.74 0.32 0.10 0.15 0.03 0.00 0.00 0.00 0.00 0.00 0.00 0.00 0.00 0.00 0.00 0.00 0.00 0.00 0.00 0.00 0.00 0.00 0.00 0.00 0.00 0.01 0.02 0.13 0.16 0.07 0.09 0.22 0.08 0.04 0.09 0.04 0.03 0.09 0.03 0.00 0.00 0.00
0.37 0.25 0.31 0.59 0.62 0.88 0.66 1.00 0.62 0.20 0.15 0.05 0.00 0.00 0.00 0.00 0.00 0.00 0.00 0.00 0.00 0.00 0.00 0.00 0.00 0.00 0.00 0.00 0.01 0.00 0.00 0.01 0.03 0.10 0.07 0.04 0.08 0.07 0.05 0.02 0.01 0.05 0.06 0.07 0.05 0.05 0.02 0.00 0.00
0.50 0.49 0.42 0.70 0.64 0.69 0.82 0.96 1.68 0.54 0.22 0.08 0.01 0.00 0.00 0.01 0.00 0.00 0.00 0.00 0.00 0.00 0.00 0.00 0.00 0.00 0.00 0.00 0.00 0.00 0.01 0.02 0.06 0.08 0.13 0.05 0.03 0.02 0.06 0.06 0.01 0.01 0.03 0.04 0.02 0.00 0.00 0.01 0.00
0.34 0.56 0.42 0.54 0.64 0.81 1.03 0.70 1.15 1.10 0.31 0.09 0.01 0.00 0.01 0.00 0.00 0.00 0.00 0.00 0.00 0.00 0.00 0.00 0.00 0.00 0.04 0.03 0.01 0.01 0.04 0.07 0.08 0.05 0.14 0.15 0.11 0.05 0.09 0.04 0.04 0.05 0.03 0.01 0.02 0.01 0.00 0.01 0.00
0.38 0.54 0.93 0.67 0.39 1.17 1.16 0.93 1.01 0.75 0.35 0.07 0.00 0.00 0.00 0.00 0.00 0.00 0.00 0.00 0.00 0.00 0.00 0.00 0.01 0.04 0.10 0.05 0.01 0.02 0.09 0.04 0.09 0.09 0.18 0.21 0.18 0.11 0.07 0.03 0.05 0.25 0.06 0.00 0.03 0.01 0.00 0.00 0.00
0.03 0.24 1.18 1.35 1.03 0.92 1.26 0.87 0.72 1.26 0.67 0.18 0.03 0.00 0.00 0.00 0.00 0.00 0.00 0.00 0.00 0.00 0.00 0.00 0.03 0.06 0.06 0.04 0.07 0.08 0.06 0.05 0.08 0.14 0.20 0.10 0.07 0.07 0.03 0.05 0.04 0.09 0.01 0.00 0.01 0.00 0.00 0.00 0.00
0.00 0.05 0.83 1.80 1.51 1.18 0.96 1.03 0.58 0.92 1.27 0.58 0.08 0.01 0.03 0.01 0.01 0.00 0.00 0.00 0.00 0.00 0.00 0.00 0.02 0.07 0.03 0.08 0.11 0.31 0.25 0.30 0.27 0.13 0.09 0.05 0.01 0.03 0.09 0.03 0.25 0.07 0.08 0.05 0.01 0.01 0.00 0.00 0.00
0.01 0.07 0.34 1.12 1.25 0.75 0.40 0.55 0.47 0.41 0.91 0.69 0.22 0.02 0.03 0.04 0.03 0.03 0.00 0.00 0.00 0.00 0.00 0.00 0.01 0.08 0.04 0.07 0.10 0.22 0.44 0.50 0.31 0.17 0.34 0.21 0.03 0.03 0.04 0.04 0.09 0.08 0.32 0.26 0.01 0.01 0.00 0.00 0.00
0.00 0.00 0.17 0.62 0.83 0.52 0.18 0.16 0.14 0.24 0.64 0.93 0.33 0.11 0.05 0.04 0.07 0.06 0.01 0.03 0.03 0.00 0.00 0.00 0.00 0.01 0.02 0.03 0.19 0.13 0.11 0.17 0.17 0.24 0.62 0.25 0.09 0.03 0.05 0.02 0.02 0.02 0.10 0.09 0.08 0.02 0.00 0.00 0.01
0.00 0.00 0.00 0.24 0.82 0.32 0.04 0.02 0.05 0.06 0.20 0.72 0.52 0.37 0.10 0.06 0.09 0.07 0.05 0.04 0.04 0.01 0.00 0.00 0.00 0.00 0.01 0.01 0.03 0.15 0.25 0.25 0.47 0.73 0.60 0.20 0.11 0.03 0.03 0.00 0.02 0.04 0.22 0.18 0.02 0.03 0.00 0.00 0.01
0.00 0.00 0.02 0.11 0.31 0.18 0.06 0.01 0.03 0.02 0.06 0.30 0.49 0.30 0.23 0.13 0.14 0.07 0.05 0.06 0.08 0.02 0.00 0.00 0.00 0.00 0.00 0.00 0.00 0.05 0.14 0.28 0.35 0.43 0.27 0.27 0.42 0.42 0.11 0.13 0.10 0.02 0.03 0.03 0.02 0.08 0.06 0.00 0.00
0.00 0.00 0.00 0.02 0.04 0.11 0.07 0.03 0.00 0.03 0.12 0.16 0.17 0.12 0.39 0.25 0.22 0.21 0.23 0.19 0.24 0.16 0.01 0.06 0.02 0.02 0.00 0.02 0.02 0.03 0.08 0.08 0.20 0.20 0.31 0.40 0.45 0.41 0.20 0.18 0.13 0.05 0.01 0.01 0.01 0.00 0.01 0.03 0.01
0.00 0.00 0.00 0.00 0.01 0.03 0.08 0.07 0.02 0.10 0.17 0.07 0.07 0.08 0.18 0.30 0.40 0.31 0.21 0.27 0.52 0.38 0.19 0.04 0.08 0.06 0.06 0.03 0.04 0.11 0.14 0.07 0.11 0.31 0.18 0.18 0.30 0.47 0.66 0.24 0.21 0.12 0.05 0.01 0.01 0.00 0.01 0.10 0.18
0.00 0.00 0.00 0.00 0.00 0.02 0.10 0.11 0.13 0.13 0.12 0.14 0.13 0.11 0.10 0.19 0.53 0.78 0.87 0.43 0.43 0.66 0.83 0.44 0.14 0.11 0.20 0.08 0.12 0.24 0.15 0.12 0.09 0.14 0.16 0.29 0.36 1.56 1.18 0.28 0.16 0.18 0.08 0.10 0.06 0.01 0.02 0.03 0.06
0.00 0.00 0.00 0.00 0.00 0.00 0.07 0.15 0.13 0.16 0.13 0.07 0.06 0.17 0.17 0.22 0.37 0.78 1.02 1.35 0.64 0.78 0.57 0.88 0.80 0.71 0.67 0.55 0.38 0.47 0.28 0.12 0.12 0.12 0.12 0.18 0.31 0.55 0.44 0.44 0.14 0.21 0.26 0.14 0.16 0.11 0.06 0.06 0.04
0.00 0.00 0.00 0.00 0.00 0.00 0.01 0.09 0.19 0.35 0.17 0.08 0.05 0.11 0.13 0.26 0.31 0.35 0.40 0.66 0.66 0.94 0.65 0.85 1.74 1.20 0.90 0.72 0.70 0.48 0.62 0.43 0.30 0.19 0.17 0.18 0.18 0.29 0.47 0.29 0.35 0.36 0.21 0.24 0.23 0.09 0.11 0.13 0.07